Year,Month,Day,Hour,Minute,Value (Times are PST for temperature in C)
2014,08,12,00,00,20.80
2014,08,12,00,01,20.80
2014,08,12,00,02,20.80
2014,08,12,00,03,20.70
2014,08,12,00,04,20.70
2014,08,12,00,05,20.70
2014,08,12,00,06,20.60
2014,08,12,00,07,20.60
2014,08,12,00,08,20.50
2014,08,12,00,09,20.40
2014,08,12,00,10,20.40
2014,08,12,00,11,20.30
2014,08,12,00,12,20.30
2014,08,12,00,13,20.20
2014,08,12,00,14,20.20
2014,08,12,00,15,20.20
2014,08,12,00,16,20.20
2014,08,12,00,17,20.10
2014,08,12,00,18,20.10
2014,08,12,00,19,20.10
2014,08,12,00,20,20.10
2014,08,12,00,21,20.00
2014,08,12,00,22,20.00
2014,08,12,00,23,19.90
2014,08,12,00,24,19.90
2014,08,12,00,25,19.90
2014,08,12,00,26,19.80
2014,08,12,00,27,19.80
2014,08,12,00,28,19.80
2014,08,12,00,29,19.70
2014,08,12,00,30,19.70
2014,08,12,00,31,19.70
2014,08,12,00,32,19.60
2014,08,12,00,33,19.60
2014,08,12,00,34,19.50
2014,08,12,00,35,19.40
2014,08,12,00,36,19.40
2014,08,12,00,37,19.30
2014,08,12,00,38,19.30
2014,08,12,00,39,19.30
2014,08,12,00,40,19.20
2014,08,12,00,41,19.20
2014,08,12,00,42,19.20
2014,08,12,00,43,19.20
2014,08,12,00,44,19.10
2014,08,12,00,45,19.10
2014,08,12,00,46,19.10
2014,08,12,00,47,19.10
2014,08,12,00,48,19.00
2014,08,12,00,49,19.00
2014,08,12,00,50,19.00
2014,08,12,00,51,19.00
2014,08,12,00,52,18.90
2014,08,12,00,53,18.90
2014,08,12,00,54,18.90
2014,08,12,00,55,18.90
2014,08,12,00,56,18.90
2014,08,12,00,57,18.90
2014,08,12,00,58,18.80
2014,08,12,00,59,18.80
2014,08,12,01,00,18.80
2014,08,12,01,01,18.80
2014,08,12,01,02,18.80
2014,08,12,01,03,18.80
2014,08,12,01,04,18.70
2014,08,12,01,05,18.70
2014,08,12,01,06,18.70
2014,08,12,01,07,18.60
2014,08,12,01,08,18.60
2014,08,12,01,09,18.60
2014,08,12,01,10,18.50
2014,08,12,01,11,18.50
2014,08,12,01,12,18.40
2014,08,12,01,13,18.40
2014,08,12,01,14,18.40
2014,08,12,01,15,18.30
2014,08,12,01,16,18.30
2014,08,12,01,17,18.30
2014,08,12,01,18,18.30
2014,08,12,01,19,18.30
2014,08,12,01,20,18.20
2014,08,12,01,21,18.20
2014,08,12,01,22,18.20
2014,08,12,01,23,18.20
2014,08,12,01,24,18.10
2014,08,12,01,25,18.10
2014,08,12,01,26,18.10
2014,08,12,01,27,18.10
2014,08,12,01,28,18.10
2014,08,12,01,29,18.10
2014,08,12,01,30,18.10
2014,08,12,01,31,18.00
2014,08,12,01,32,18.00
2014,08,12,01,33,18.00
2014,08,12,01,34,18.00
2014,08,12,01,35,17.90
2014,08,12,01,36,17.90
2014,08,12,01,37,17.90
2014,08,12,01,38,17.90
2014,08,12,01,39,17.90
2014,08,12,01,40,17.80
2014,08,12,01,41,17.80
2014,08,12,01,42,17.80
2014,08,12,01,43,17.80
2014,08,12,01,44,17.70
2014,08,12,01,45,17.70
2014,08,12,01,46,17.60
2014,08,12,01,47,17.60
2014,08,12,01,48,17.60
2014,08,12,01,49,17.50
2014,08,12,01,50,17.50
2014,08,12,01,51,17.40
2014,08,12,01,52,17.40
2014,08,12,01,53,17.40
2014,08,12,01,54,17.40
2014,08,12,01,55,17.30
2014,08,12,01,56,17.30
2014,08,12,01,57,17.30
2014,08,12,01,58,17.30
2014,08,12,01,59,17.30
2014,08,12,02,00,17.30
2014,08,12,02,01,17.30
2014,08,12,02,02,17.30
2014,08,12,02,03,17.20
2014,08,12,02,04,17.20
2014,08,12,02,05,17.20
2014,08,12,02,06,17.20
2014,08,12,02,07,17.20
2014,08,12,02,08,17.20
2014,08,12,02,09,17.20
2014,08,12,02,10,17.10
2014,08,12,02,11,17.10
2014,08,12,02,12,17.10
2014,08,12,02,13,17.10
2014,08,12,02,14,17.10
2014,08,12,02,15,17.10
2014,08,12,02,16,17.00
2014,08,12,02,17,17.00
2014,08,12,02,18,17.00
2014,08,12,02,19,16.90
2014,08,12,02,20,16.90
2014,08,12,02,21,16.90
2014,08,12,02,22,16.90
2014,08,12,02,23,16.90
2014,08,12,02,24,16.80
2014,08,12,02,25,16.80
2014,08,12,02,26,16.80
2014,08,12,02,27,16.80
2014,08,12,02,28,16.80
2014,08,12,02,29,16.80
2014,08,12,02,30,16.80
2014,08,12,02,31,16.70
2014,08,12,02,32,16.70
2014,08,12,02,33,16.70
2014,08,12,02,34,16.70
2014,08,12,02,35,16.70
2014,08,12,02,36,16.70
2014,08,12,02,37,16.60
2014,08,12,02,38,16.60
2014,08,12,02,39,16.60
2014,08,12,02,40,16.60
2014,08,12,02,41,16.50
2014,08,12,02,42,16.50
2014,08,12,02,43,16.50
2014,08,12,02,44,16.50
2014,08,12,02,45,16.50
2014,08,12,02,46,16.50
2014,08,12,02,47,16.40
2014,08,12,02,48,16.40
2014,08,12,02,49,16.40
2014,08,12,02,50,16.40
2014,08,12,02,51,16.40
2014,08,12,02,52,16.40
2014,08,12,02,53,16.40
2014,08,12,02,54,16.30
2014,08,12,02,55,16.30
2014,08,12,02,56,16.30
2014,08,12,02,57,16.30
2014,08,12,02,58,16.30
2014,08,12,02,59,16.30
2014,08,12,03,00,16.30
2014,08,12,03,01,16.20
2014,08,12,03,02,16.20
2014,08,12,03,03,16.20
2014,08,12,03,04,16.20
2014,08,12,03,05,16.20
2014,08,12,03,06,16.20
2014,08,12,03,07,16.10
2014,08,12,03,08,16.10
2014,08,12,03,09,16.10
2014,08,12,03,10,16.10
2014,08,12,03,11,16.10
2014,08,12,03,12,16.10
2014,08,12,03,13,16.00
2014,08,12,03,14,16.00
2014,08,12,03,15,16.00
2014,08,12,03,16,16.00
2014,08,12,03,17,15.90
2014,08,12,03,18,15.90
2014,08,12,03,19,15.90
2014,08,12,03,20,15.90
2014,08,12,03,21,15.90
2014,08,12,03,22,15.90
2014,08,12,03,23,15.90
2014,08,12,03,24,15.80
2014,08,12,03,25,15.80
2014,08,12,03,26,15.80
2014,08,12,03,27,15.80
2014,08,12,03,28,15.80
2014,08,12,03,29,15.70
2014,08,12,03,30,15.70
2014,08,12,03,31,15.70
2014,08,12,03,32,15.70
2014,08,12,03,33,15.70
2014,08,12,03,34,15.70
2014,08,12,03,35,15.70
2014,08,12,03,36,15.70
2014,08,12,03,37,15.60
2014,08,12,03,38,15.60
2014,08,12,03,39,15.60
2014,08,12,03,40,15.60
2014,08,12,03,41,15.60
2014,08,12,03,42,15.50
2014,08,12,03,43,15.50
2014,08,12,03,44,15.50
2014,08,12,03,45,15.50
2014,08,12,03,46,15.50
2014,08,12,03,47,15.40
2014,08,12,03,48,15.40
2014,08,12,03,49,15.40
2014,08,12,03,50,15.40
2014,08,12,03,51,15.40
2014,08,12,03,52,15.40
2014,08,12,03,53,15.40
2014,08,12,03,54,15.40
2014,08,12,03,55,15.40
2014,08,12,03,56,15.40
2014,08,12,03,57,15.30
2014,08,12,03,58,15.30
2014,08,12,03,59,15.30
2014,08,12,04,00,15.30
2014,08,12,04,01,15.30
2014,08,12,04,02,15.30
2014,08,12,04,03,15.30
2014,08,12,04,04,15.30
2014,08,12,04,05,15.30
2014,08,12,04,06,15.30
2014,08,12,04,07,15.20
2014,08,12,04,08,15.20
2014,08,12,04,09,15.20
2014,08,12,04,10,15.20
2014,08,12,04,11,15.20
2014,08,12,04,12,15.20
2014,08,12,04,13,15.20
2014,08,12,04,14,15.20
2014,08,12,04,15,15.20
2014,08,12,04,16,15.20
2014,08,12,04,17,15.20
2014,08,12,04,18,15.20
2014,08,12,04,19,15.20
2014,08,12,04,20,15.20
2014,08,12,04,21,15.20
2014,08,12,04,22,15.10
2014,08,12,04,23,15.10
2014,08,12,04,24,15.20
2014,08,12,04,25,15.10
2014,08,12,04,26,15.10
2014,08,12,04,27,15.10
2014,08,12,04,28,15.10
2014,08,12,04,29,15.10
2014,08,12,04,30,15.10
2014,08,12,04,31,15.10
2014,08,12,04,32,15.10
2014,08,12,04,33,15.10
2014,08,12,04,34,15.10
2014,08,12,04,35,15.10
2014,08,12,04,36,15.10
2014,08,12,04,37,15.10
2014,08,12,04,38,15.10
2014,08,12,04,39,15.10
2014,08,12,04,40,15.10
2014,08,12,04,41,15.00
2014,08,12,04,42,15.00
2014,08,12,04,43,15.00
2014,08,12,04,44,15.00
2014,08,12,04,45,15.00
2014,08,12,04,46,15.00
2014,08,12,04,47,15.00
2014,08,12,04,48,15.00
2014,08,12,04,49,15.00
2014,08,12,04,50,15.00
2014,08,12,04,51,15.00
2014,08,12,04,52,15.00
2014,08,12,04,53,15.00
2014,08,12,04,54,15.00
2014,08,12,04,55,15.00
2014,08,12,04,56,15.00
2014,08,12,04,57,15.00
2014,08,12,04,58,15.00
2014,08,12,04,59,15.00
2014,08,12,05,00,15.00
2014,08,12,05,01,15.00
2014,08,12,05,02,15.00
2014,08,12,05,03,15.00
2014,08,12,05,04,15.00
2014,08,12,05,05,15.00
2014,08,12,05,06,14.90
2014,08,12,05,07,14.90
2014,08,12,05,08,14.90
2014,08,12,05,09,14.90
2014,08,12,05,10,14.90
2014,08,12,05,11,14.80
2014,08,12,05,12,14.80
2014,08,12,05,13,14.80
2014,08,12,05,14,14.80
2014,08,12,05,15,14.70
2014,08,12,05,16,14.70
2014,08,12,05,17,14.70
2014,08,12,05,18,14.70
2014,08,12,05,19,14.70
2014,08,12,05,20,14.70
2014,08,12,05,21,14.70
2014,08,12,05,22,14.70
2014,08,12,05,23,14.70
2014,08,12,05,24,14.70
2014,08,12,05,25,14.70
2014,08,12,05,26,14.70
2014,08,12,05,27,14.70
2014,08,12,05,28,14.70
2014,08,12,05,29,14.70
2014,08,12,05,30,14.70
2014,08,12,05,31,14.70
2014,08,12,05,32,14.70
2014,08,12,05,33,14.70
2014,08,12,05,34,14.70
2014,08,12,05,35,14.70
2014,08,12,05,36,14.70
2014,08,12,05,37,14.70
2014,08,12,05,38,14.70
2014,08,12,05,39,14.70
2014,08,12,05,40,14.70
2014,08,12,05,41,14.70
2014,08,12,05,42,14.70
2014,08,12,05,43,14.70
2014,08,12,05,44,14.70
2014,08,12,05,45,14.70
2014,08,12,05,46,14.70
2014,08,12,05,47,14.60
2014,08,12,05,48,14.60
2014,08,12,05,49,14.60
2014,08,12,05,50,14.60
2014,08,12,05,51,14.60
2014,08,12,05,52,14.60
2014,08,12,05,53,14.60
2014,08,12,05,54,14.60
2014,08,12,05,55,14.60
2014,08,12,05,56,14.50
2014,08,12,05,57,14.50
2014,08,12,05,58,14.50
2014,08,12,05,59,14.50
2014,08,12,06,00,14.50
2014,08,12,06,01,14.50
2014,08,12,06,02,14.40
2014,08,12,06,03,14.40
2014,08,12,06,04,14.40
2014,08,12,06,05,14.40
2014,08,12,06,06,14.40
2014,08,12,06,07,14.40
2014,08,12,06,08,14.40
2014,08,12,06,09,14.40
2014,08,12,06,10,14.40
2014,08,12,06,11,14.40
2014,08,12,06,12,14.40
2014,08,12,06,13,14.40
2014,08,12,06,14,14.40
2014,08,12,06,15,14.40
2014,08,12,06,16,14.40
2014,08,12,06,17,14.40
2014,08,12,06,18,14.40
2014,08,12,06,19,14.40
2014,08,12,06,20,14.40
2014,08,12,06,21,14.40
2014,08,12,06,22,14.30
2014,08,12,06,23,14.30
2014,08,12,06,24,14.30
2014,08,12,06,25,14.30
2014,08,12,06,26,14.30
2014,08,12,06,27,14.30
2014,08,12,06,28,14.30
2014,08,12,06,29,14.30
2014,08,12,06,30,14.30
2014,08,12,06,31,14.30
2014,08,12,06,32,14.30
2014,08,12,06,33,14.30
2014,08,12,06,34,14.30
2014,08,12,06,35,14.30
2014,08,12,06,36,14.30
2014,08,12,06,37,14.30
2014,08,12,06,38,14.30
2014,08,12,06,39,14.30
2014,08,12,06,40,14.30
2014,08,12,06,41,14.30
2014,08,12,06,42,14.30
2014,08,12,06,43,14.30
2014,08,12,06,44,14.30
2014,08,12,06,45,14.30
2014,08,12,06,46,14.20
2014,08,12,06,47,14.20
2014,08,12,06,48,14.20
2014,08,12,06,49,14.20
2014,08,12,06,50,14.30
2014,08,12,06,51,14.30
2014,08,12,06,52,14.30
2014,08,12,06,53,14.30
2014,08,12,06,54,14.30
2014,08,12,06,55,14.30
2014,08,12,06,56,14.30
2014,08,12,06,57,14.30
2014,08,12,06,58,14.30
2014,08,12,06,59,14.30
2014,08,12,07,00,14.40
2014,08,12,07,01,14.40
2014,08,12,07,02,14.40
2014,08,12,07,03,14.40
2014,08,12,07,04,14.40
2014,08,12,07,05,14.40
2014,08,12,07,06,14.40
2014,08,12,07,07,14.40
2014,08,12,07,08,14.40
2014,08,12,07,09,14.40
2014,08,12,07,10,14.40
2014,08,12,07,11,14.40
2014,08,12,07,12,14.50
2014,08,12,07,13,14.50
2014,08,12,07,14,14.50
2014,08,12,07,15,14.60
2014,08,12,07,16,14.60
2014,08,12,07,17,14.60
2014,08,12,07,18,14.60
2014,08,12,07,19,14.60
2014,08,12,07,20,14.70
2014,08,12,07,21,14.70
2014,08,12,07,22,14.70
2014,08,12,07,23,14.70
2014,08,12,07,24,14.70
2014,08,12,07,25,14.80
2014,08,12,07,26,14.80
2014,08,12,07,27,14.80
2014,08,12,07,28,14.80
2014,08,12,07,29,14.80
2014,08,12,07,30,14.90
2014,08,12,07,31,14.90
2014,08,12,07,32,14.90
2014,08,12,07,33,14.90
2014,08,12,07,34,15.00
2014,08,12,07,35,15.00
2014,08,12,07,36,15.10
2014,08,12,07,37,15.10
2014,08,12,07,38,15.10
2014,08,12,07,39,15.10
2014,08,12,07,40,15.20
2014,08,12,07,41,15.20
2014,08,12,07,42,15.20
2014,08,12,07,43,15.20
2014,08,12,07,44,15.20
2014,08,12,07,45,15.20
2014,08,12,07,46,15.30
2014,08,12,07,47,15.30
2014,08,12,07,48,15.30
2014,08,12,07,49,15.30
2014,08,12,07,50,15.30
2014,08,12,07,51,15.30
2014,08,12,07,52,15.30
2014,08,12,07,53,15.30
2014,08,12,07,54,15.30
2014,08,12,07,55,15.40
2014,08,12,07,56,15.40
2014,08,12,07,57,15.40
2014,08,12,07,58,15.40
2014,08,12,07,59,15.40
2014,08,12,08,00,15.40
2014,08,12,08,01,15.50
2014,08,12,08,02,15.50
2014,08,12,08,03,15.60
2014,08,12,08,04,15.60
2014,08,12,08,05,15.60
2014,08,12,08,06,15.60
2014,08,12,08,07,15.70
2014,08,12,08,08,15.70
2014,08,12,08,09,15.70
2014,08,12,08,10,15.80
2014,08,12,08,11,15.80
2014,08,12,08,12,15.90
2014,08,12,08,13,16.00
2014,08,12,08,14,16.00
2014,08,12,08,15,16.10
2014,08,12,08,16,16.20
2014,08,12,08,17,16.30
2014,08,12,08,18,16.30
2014,08,12,08,19,16.40
2014,08,12,08,20,16.40
2014,08,12,08,21,16.50
2014,08,12,08,22,16.60
2014,08,12,08,23,16.60
2014,08,12,08,24,16.70
2014,08,12,08,25,16.80
2014,08,12,08,26,16.90
2014,08,12,08,27,17.00
2014,08,12,08,28,17.10
2014,08,12,08,29,17.20
2014,08,12,08,30,17.30
2014,08,12,08,31,17.40
2014,08,12,08,32,17.50
2014,08,12,08,33,17.60
2014,08,12,08,34,17.60
2014,08,12,08,35,17.70
2014,08,12,08,36,17.80
2014,08,12,08,37,17.80
2014,08,12,08,38,17.90
2014,08,12,08,39,18.00
2014,08,12,08,40,18.00
2014,08,12,08,41,18.10
2014,08,12,08,42,18.10
2014,08,12,08,43,18.20
2014,08,12,08,44,18.30
2014,08,12,08,45,18.30
2014,08,12,08,46,18.30
2014,08,12,08,47,18.30
2014,08,12,08,48,18.30
2014,08,12,08,49,18.30
2014,08,12,08,50,18.40
2014,08,12,08,51,18.40
2014,08,12,08,52,18.50
2014,08,12,08,53,18.50
2014,08,12,08,54,18.60
2014,08,12,08,55,18.70
2014,08,12,08,56,18.70
2014,08,12,08,57,18.70
2014,08,12,08,58,18.80
2014,08,12,08,59,18.80
2014,08,12,09,00,18.80
2014,08,12,09,01,18.90
2014,08,12,09,02,18.90
2014,08,12,09,03,18.90
2014,08,12,09,04,18.90
2014,08,12,09,05,18.90
2014,08,12,09,06,18.90
2014,08,12,09,07,18.80
2014,08,12,09,08,18.80
2014,08,12,09,09,18.80
2014,08,12,09,10,18.80
2014,08,12,09,11,18.80
2014,08,12,09,12,18.80
2014,08,12,09,13,18.80
2014,08,12,09,14,18.80
2014,08,12,09,15,18.80
2014,08,12,09,16,18.80
2014,08,12,09,17,18.90
2014,08,12,09,18,18.90
2014,08,12,09,19,19.00
2014,08,12,09,20,19.00
2014,08,12,09,21,19.10
2014,08,12,09,22,19.10
2014,08,12,09,23,19.10
2014,08,12,09,24,19.10
2014,08,12,09,25,19.20
2014,08,12,09,26,19.30
2014,08,12,09,27,19.30
2014,08,12,09,28,19.40
2014,08,12,09,29,19.50
2014,08,12,09,30,19.50
2014,08,12,09,31,19.60
2014,08,12,09,32,19.60
2014,08,12,09,33,19.70
2014,08,12,09,34,19.70
2014,08,12,09,35,19.70
2014,08,12,09,36,19.80
2014,08,12,09,37,19.80
2014,08,12,09,38,19.80
2014,08,12,09,39,19.80
2014,08,12,09,40,19.90
2014,08,12,09,41,19.90
2014,08,12,09,42,20.00
2014,08,12,09,43,20.10
2014,08,12,09,44,20.20
2014,08,12,09,45,20.20
2014,08,12,09,46,20.30
2014,08,12,09,47,20.40
2014,08,12,09,48,20.50
2014,08,12,09,49,20.70
2014,08,12,09,50,20.80
2014,08,12,09,51,20.90
2014,08,12,09,52,21.00
2014,08,12,09,53,21.20
2014,08,12,09,54,21.30
2014,08,12,09,55,21.50
2014,08,12,09,56,21.60
2014,08,12,09,57,21.70
2014,08,12,09,58,21.70
2014,08,12,09,59,21.70
2014,08,12,10,00,21.70
2014,08,12,10,01,21.60
2014,08,12,10,02,21.60
2014,08,12,10,03,21.50
2014,08,12,10,04,21.50
2014,08,12,10,05,21.40
2014,08,12,10,06,21.40
2014,08,12,10,07,21.30
2014,08,12,10,08,21.30
2014,08,12,10,09,21.30
2014,08,12,10,10,21.30
2014,08,12,10,11,21.30
2014,08,12,10,12,21.40
2014,08,12,10,13,21.40
2014,08,12,10,14,21.40
2014,08,12,10,15,21.40
2014,08,12,10,16,21.40
2014,08,12,10,17,21.40
2014,08,12,10,18,21.40
2014,08,12,10,19,21.40
2014,08,12,10,20,21.40
2014,08,12,10,21,21.40
2014,08,12,10,22,21.40
2014,08,12,10,23,21.40
2014,08,12,10,24,21.50
2014,08,12,10,25,21.50
2014,08,12,10,26,21.50
2014,08,12,10,27,21.60
2014,08,12,10,28,21.60
2014,08,12,10,29,21.70
2014,08,12,10,30,21.70
2014,08,12,10,31,21.70
2014,08,12,10,32,21.70
2014,08,12,10,33,21.80
2014,08,12,10,34,21.80
2014,08,12,10,35,21.80
2014,08,12,10,36,21.80
2014,08,12,10,37,21.80
2014,08,12,10,38,21.80
2014,08,12,10,39,21.90
2014,08,12,10,40,21.90
2014,08,12,10,41,21.90
2014,08,12,10,42,21.80
2014,08,12,10,43,21.80
2014,08,12,10,44,21.80
2014,08,12,10,45,21.80
2014,08,12,10,46,21.70
2014,08,12,10,47,21.70
2014,08,12,10,48,21.70
2014,08,12,10,49,21.70
2014,08,12,10,50,21.80
2014,08,12,10,51,21.80
2014,08,12,10,52,21.80
2014,08,12,10,53,21.80
2014,08,12,10,54,21.80
2014,08,12,10,55,21.80
2014,08,12,10,56,21.90
2014,08,12,10,57,21.90
2014,08,12,10,58,21.90
2014,08,12,10,59,22.00
2014,08,12,11,00,22.00
2014,08,12,11,01,22.00
2014,08,12,11,02,22.10
2014,08,12,11,03,22.10
2014,08,12,11,04,22.10
2014,08,12,11,05,22.10
2014,08,12,11,06,22.10
2014,08,12,11,07,22.10
2014,08,12,11,08,22.10
2014,08,12,11,09,22.10
2014,08,12,11,10,22.10
2014,08,12,11,11,22.10
2014,08,12,11,12,22.10
2014,08,12,11,13,22.10
2014,08,12,11,14,22.10
2014,08,12,11,15,22.10
2014,08,12,11,16,22.10
2014,08,12,11,17,22.10
2014,08,12,11,18,22.10
2014,08,12,11,19,22.10
2014,08,12,11,20,22.20
2014,08,12,11,21,22.20
2014,08,12,11,22,22.20
2014,08,12,11,23,22.20
2014,08,12,11,24,22.30
2014,08,12,11,25,22.30
2014,08,12,11,26,22.40
2014,08,12,11,27,22.40
2014,08,12,11,28,22.40
2014,08,12,11,29,22.50
2014,08,12,11,30,22.50
2014,08,12,11,31,22.50
2014,08,12,11,32,22.60
2014,08,12,11,33,22.60
2014,08,12,11,34,22.60
2014,08,12,11,35,22.70
2014,08,12,11,36,22.70
2014,08,12,11,37,22.70
2014,08,12,11,38,22.80
2014,08,12,11,39,22.90
2014,08,12,11,40,23.00
2014,08,12,11,41,23.00
2014,08,12,11,42,23.10
2014,08,12,11,43,23.10
2014,08,12,11,44,23.10
2014,08,12,11,45,23.20
2014,08,12,11,46,23.20
2014,08,12,11,47,23.10
2014,08,12,11,48,23.10
2014,08,12,11,49,23.00
2014,08,12,11,50,23.00
2014,08,12,11,51,23.00
2014,08,12,11,52,22.90
2014,08,12,11,53,22.80
2014,08,12,11,54,22.80
2014,08,12,11,55,22.80
2014,08,12,11,56,22.80
2014,08,12,11,57,22.70
2014,08,12,11,58,22.70
2014,08,12,11,59,22.70
2014,08,12,12,00,22.70
2014,08,12,12,01,22.60
2014,08,12,12,02,22.60
2014,08,12,12,03,22.60
2014,08,12,12,04,22.50
2014,08,12,12,05,22.50
2014,08,12,12,06,22.40
2014,08,12,12,07,22.40
2014,08,12,12,08,22.40
2014,08,12,12,09,22.40
2014,08,12,12,10,22.40
2014,08,12,12,11,22.40
2014,08,12,12,12,22.40
2014,08,12,12,13,22.40
2014,08,12,12,14,22.40
2014,08,12,12,15,22.40
2014,08,12,12,16,22.30
2014,08,12,12,17,22.30
2014,08,12,12,18,22.30
2014,08,12,12,19,22.30
2014,08,12,12,20,22.30
2014,08,12,12,21,22.30
2014,08,12,12,22,22.30
2014,08,12,12,23,22.20
2014,08,12,12,24,22.20
2014,08,12,12,25,22.20
2014,08,12,12,26,22.20
2014,08,12,12,27,22.20
2014,08,12,12,28,22.20
2014,08,12,12,29,22.20
2014,08,12,12,30,22.20
2014,08,12,12,31,22.30
2014,08,12,12,32,22.30
2014,08,12,12,33,22.30
2014,08,12,12,34,22.30
2014,08,12,12,35,22.30
2014,08,12,12,36,22.30
2014,08,12,12,37,22.30
2014,08,12,12,38,22.30
2014,08,12,12,39,22.30
2014,08,12,12,40,22.40
2014,08,12,12,41,22.40
2014,08,12,12,42,22.50
2014,08,12,12,43,22.60
2014,08,12,12,44,22.60
2014,08,12,12,45,22.70
2014,08,12,12,46,22.70
2014,08,12,12,47,22.80
2014,08,12,12,48,22.80
2014,08,12,12,49,22.90
2014,08,12,12,50,22.90
2014,08,12,12,51,23.00
2014,08,12,12,52,23.00
2014,08,12,12,53,23.10
2014,08,12,12,54,23.20
2014,08,12,12,55,23.20
2014,08,12,12,56,23.20
2014,08,12,12,57,23.30
2014,08,12,12,58,23.30
2014,08,12,12,59,23.40
2014,08,12,13,00,23.40
2014,08,12,13,01,23.50
2014,08,12,13,02,23.50
2014,08,12,13,03,23.60
2014,08,12,13,04,23.70
2014,08,12,13,05,23.70
2014,08,12,13,06,23.70
2014,08,12,13,07,23.80
2014,08,12,13,08,23.80
2014,08,12,13,09,23.80
2014,08,12,13,10,23.90
2014,08,12,13,11,23.90
2014,08,12,13,12,23.90
2014,08,12,13,13,23.90
2014,08,12,13,14,23.90
2014,08,12,13,15,24.00
2014,08,12,13,16,24.00
2014,08,12,13,17,24.00
2014,08,12,13,18,24.10
2014,08,12,13,19,24.10
2014,08,12,13,20,24.10
2014,08,12,13,21,24.20
2014,08,12,13,22,24.20
2014,08,12,13,23,24.20
2014,08,12,13,24,24.20
2014,08,12,13,25,24.20
2014,08,12,13,26,24.20
2014,08,12,13,27,24.20
2014,08,12,13,28,24.20
2014,08,12,13,29,24.20
2014,08,12,13,30,24.10
2014,08,12,13,31,24.10
2014,08,12,13,32,24.10
2014,08,12,13,33,24.10
2014,08,12,13,34,24.10
2014,08,12,13,35,24.10
2014,08,12,13,36,24.10
2014,08,12,13,37,24.10
2014,08,12,13,38,24.10
2014,08,12,13,39,24.20
2014,08,12,13,40,24.20
2014,08,12,13,41,24.20
2014,08,12,13,42,24.20
2014,08,12,13,43,24.30
2014,08,12,13,44,24.30
2014,08,12,13,45,24.30
2014,08,12,13,46,24.40
2014,08,12,13,47,24.40
2014,08,12,13,48,24.40
2014,08,12,13,49,24.40
2014,08,12,13,50,24.40
2014,08,12,13,51,24.40
2014,08,12,13,52,24.30
2014,08,12,13,53,24.30
2014,08,12,13,54,24.30
2014,08,12,13,55,24.30
2014,08,12,13,56,24.30
2014,08,12,13,57,24.30
2014,08,12,13,58,24.30
2014,08,12,13,59,24.30
2014,08,12,14,00,24.40
2014,08,12,14,01,24.40
2014,08,12,14,02,24.40
2014,08,12,14,03,24.40
2014,08,12,14,04,24.50
2014,08,12,14,05,24.50
2014,08,12,14,06,24.50
2014,08,12,14,07,24.60
2014,08,12,14,08,24.60
2014,08,12,14,09,24.60
2014,08,12,14,10,24.60
2014,08,12,14,11,24.70
2014,08,12,14,12,24.70
2014,08,12,14,13,24.70
2014,08,12,14,14,24.80
2014,08,12,14,15,24.80
2014,08,12,14,16,24.90
2014,08,12,14,17,24.90
2014,08,12,14,18,24.90
2014,08,12,14,19,25.00
2014,08,12,14,20,25.10
2014,08,12,14,21,25.20
2014,08,12,14,22,25.30
2014,08,12,14,23,25.30
2014,08,12,14,24,25.40
2014,08,12,14,25,25.50
2014,08,12,14,26,25.50
2014,08,12,14,27,25.50
2014,08,12,14,28,25.60
2014,08,12,14,29,25.60
2014,08,12,14,30,25.70
2014,08,12,14,31,25.80
2014,08,12,14,32,25.90
2014,08,12,14,33,25.90
2014,08,12,14,34,25.90
2014,08,12,14,35,25.90
2014,08,12,14,36,25.90
2014,08,12,14,37,25.90
2014,08,12,14,38,25.90
2014,08,12,14,39,26.00
2014,08,12,14,40,26.00
2014,08,12,14,41,26.00
2014,08,12,14,42,26.00
2014,08,12,14,43,26.10
2014,08,12,14,44,26.10
2014,08,12,14,45,26.10
2014,08,12,14,46,26.10
2014,08,12,14,47,26.10
2014,08,12,14,48,26.10
2014,08,12,14,49,26.10
2014,08,12,14,50,26.10
2014,08,12,14,51,26.00
2014,08,12,14,52,25.90
2014,08,12,14,53,25.90
2014,08,12,14,54,25.80
2014,08,12,14,55,25.80
2014,08,12,14,56,25.80
2014,08,12,14,57,25.80
2014,08,12,14,58,25.70
2014,08,12,14,59,25.70
2014,08,12,15,00,25.70
2014,08,12,15,01,25.70
2014,08,12,15,02,25.70
2014,08,12,15,03,25.70
2014,08,12,15,04,25.70
2014,08,12,15,05,25.70
2014,08,12,15,06,25.70
2014,08,12,15,07,25.70
2014,08,12,15,08,25.70
2014,08,12,15,09,25.70
2014,08,12,15,10,25.70
2014,08,12,15,11,25.60
2014,08,12,15,12,25.60
2014,08,12,15,13,25.60
2014,08,12,15,14,25.60
2014,08,12,15,15,25.60
2014,08,12,15,16,25.60
2014,08,12,15,17,25.60
2014,08,12,15,18,25.60
2014,08,12,15,19,25.60
2014,08,12,15,20,25.60
2014,08,12,15,21,25.60
2014,08,12,15,22,25.50
2014,08,12,15,23,25.50
2014,08,12,15,24,25.50
2014,08,12,15,25,25.50
2014,08,12,15,26,25.50
2014,08,12,15,27,25.40
2014,08,12,15,28,25.40
2014,08,12,15,29,25.40
2014,08,12,15,30,25.40
2014,08,12,15,31,25.40
2014,08,12,15,32,25.40
2014,08,12,15,33,25.40
2014,08,12,15,34,25.40
2014,08,12,15,35,25.30
2014,08,12,15,36,25.30
2014,08,12,15,37,25.30
2014,08,12,15,38,25.30
2014,08,12,15,39,25.20
2014,08,12,15,40,25.20
2014,08,12,15,41,25.20
2014,08,12,15,42,25.20
2014,08,12,15,43,25.10
2014,08,12,15,44,25.10
2014,08,12,15,45,25.10
2014,08,12,15,46,25.00
2014,08,12,15,47,25.00
2014,08,12,15,48,25.00
2014,08,12,15,49,25.00
2014,08,12,15,50,25.00
2014,08,12,15,51,24.90
2014,08,12,15,52,24.90
2014,08,12,15,53,24.90
2014,08,12,15,54,24.80
2014,08,12,15,55,24.80
2014,08,12,15,56,24.80
2014,08,12,15,57,24.70
2014,08,12,15,58,24.70
2014,08,12,15,59,24.60
2014,08,12,16,00,24.60
2014,08,12,16,01,24.60
2014,08,12,16,02,24.50
2014,08,12,16,03,24.50
2014,08,12,16,04,24.40
2014,08,12,16,05,24.40
2014,08,12,16,06,24.30
2014,08,12,16,07,24.30
2014,08,12,16,08,24.20
2014,08,12,16,09,24.20
2014,08,12,16,10,24.10
2014,08,12,16,11,24.10
2014,08,12,16,12,24.10
2014,08,12,16,13,24.10
2014,08,12,16,14,24.10
2014,08,12,16,15,24.00
2014,08,12,16,16,24.00
2014,08,12,16,17,24.00
2014,08,12,16,18,24.00
2014,08,12,16,19,24.00
2014,08,12,16,20,24.00
2014,08,12,16,21,24.00
2014,08,12,16,22,24.00
2014,08,12,16,23,23.90
2014,08,12,16,24,23.90
2014,08,12,16,25,23.90
2014,08,12,16,26,23.90
2014,08,12,16,27,23.90
2014,08,12,16,28,23.90
2014,08,12,16,29,23.90
2014,08,12,16,30,23.90
2014,08,12,16,31,23.90
2014,08,12,16,32,23.90
2014,08,12,16,33,23.90
2014,08,12,16,34,23.90
2014,08,12,16,35,24.00
2014,08,12,16,36,24.00
2014,08,12,16,37,24.00
2014,08,12,16,38,24.00
2014,08,12,16,39,24.00
2014,08,12,16,40,24.00
2014,08,12,16,41,24.00
2014,08,12,16,42,24.00
2014,08,12,16,43,24.00
2014,08,12,16,44,23.90
2014,08,12,16,45,23.90
2014,08,12,16,46,23.80
2014,08,12,16,47,23.70
2014,08,12,16,48,23.60
2014,08,12,16,49,23.60
2014,08,12,16,50,23.50
2014,08,12,16,51,23.40
2014,08,12,16,52,23.30
2014,08,12,16,53,23.30
2014,08,12,16,54,23.30
2014,08,12,16,55,23.20
2014,08,12,16,56,23.20
2014,08,12,16,57,23.20
2014,08,12,16,58,23.10
2014,08,12,16,59,23.10
2014,08,12,17,00,23.00
2014,08,12,17,01,23.00
2014,08,12,17,02,22.90
2014,08,12,17,03,22.90
2014,08,12,17,04,22.80
2014,08,12,17,05,22.80
2014,08,12,17,06,22.70
2014,08,12,17,07,22.60
2014,08,12,17,08,22.50
2014,08,12,17,09,22.50
2014,08,12,17,10,22.40
2014,08,12,17,11,22.40
2014,08,12,17,12,22.30
2014,08,12,17,13,22.30
2014,08,12,17,14,22.30
2014,08,12,17,15,22.30
2014,08,12,17,16,22.20
2014,08,12,17,17,22.20
2014,08,12,17,18,22.20
2014,08,12,17,19,22.20